Total_Precipitation_Accumulation
0.00 0.00 0.00 0.00 0.00 0.00 0.00 0.00 0.00 0.00 0.00 0.00 0.01 0.03 0.00 0.00 0.02 0.03 0.00 0.02 0.02 0.00 0.00 0.00 0.00 0.00 0.00 0.01 0.06 0.17 0.32 0.39
0.00 0.01 0.00 0.00 0.00 0.00 0.00 0.00 0.00 0.00 0.00 0.00 0.00 0.03 0.01 0.00 0.00 0.01 0.00 0.01 0.00 0.00 0.00 0.00 0.00 0.01 0.00 0.08 0.19 0.24 0.22 0.38
0.01 0.01 0.01 0.00 0.00 0.00 0.00 0.00 0.00 0.00 0.00 0.00 0.00 0.00 0.00 0.00 0.00 0.00 0.02 0.03 0.01 0.00 0.00 0.00 0.00 0.00 0.01 0.07 0.06 0.10 0.25 0.35
0.00 0.01 0.05 0.04 0.00 0.00 0.00 0.00 0.00 0.00 0.00 0.00 0.00 0.01 0.03 0.02 0.00 0.00 0.00 0.01 0.00 0.00 0.00 0.00 0.00 0.00 0.00 0.01 0.04 0.12 0.23 0.35
0.00 0.00 0.04 0.12 0.13 0.04 0.00 0.00 0.00 0.00 0.00 0.01 0.01 0.02 0.07 0.05 0.06 0.00 0.00 0.00 0.00 0.00 0.00 0.00 0.00 0.02 0.02 0.03 0.08 0.04 0.12 0.31
0.00 0.00 0.01 0.01 0.05 0.16 0.11 0.01 0.00 0.00 0.00 0.01 0.02 0.02 0.06 0.06 0.04 0.01 0.00 0.00 0.00 0.00 0.00 0.00 0.00 0.02 0.03 0.05 0.09 0.05 0.10 0.29
0.00 0.00 0.00 0.00 0.00 0.01 0.06 0.06 0.01 0.00 0.00 0.01 0.02 0.01 0.05 0.04 0.04 0.02 0.00 0.00 0.01 0.00 0.01 0.02 0.01 0.02 0.03 0.01 0.03 0.07 0.10 0.21
0.00 0.00 0.00 0.00 0.00 0.00 0.01 0.01 0.01 0.01 0.00 0.00 0.02 0.01 0.02 0.04 0.03 0.02 0.00 0.01 0.00 0.01 0.02 0.00 0.01 0.01 0.01 0.01 0.01 0.04 0.08 0.13
0.00 0.00 0.00 0.00 0.01 0.00 0.01 0.03 0.09 0.02 0.01 0.00 0.01 0.01 0.01 0.01 0.01 0.02 0.01 0.01 0.01 0.02 0.04 0.01 0.01 0.01 0.01 0.00 0.01 0.01 0.05 0.07
0.00 0.00 0.00 0.00 0.02 0.04 0.07 0.06 0.04 0.08 0.03 0.01 0.01 0.01 0.01 0.01 0.01 0.00 0.01 0.01 0.01 0.02 0.03 0.03 0.02 0.01 0.01 0.01 0.00 0.00 0.00 0.04
0.00 0.00 0.00 0.00 0.05 0.08 0.06 0.04 0.11 0.26 0.10 0.01 0.01 0.01 0.00 0.00 0.01 0.00 0.02 0.01 0.01 0.01 0.03 0.04 0.01 0.01 0.00 0.01 0.01 0.00 0.01 0.01
0.00 0.00 0.00 0.01 0.07 0.09 0.08 0.11 0.21 0.26 0.14 0.08 0.01 0.01 0.01 0.00 0.00 0.01 0.01 0.02 0.01 0.01 0.02 0.01 0.01 0.02 0.01 0.00 0.01 0.00 0.01 0.01
0.00 0.00 0.00 0.03 0.10 0.11 0.12 0.11 0.13 0.16 0.12 0.10 0.05 0.01 0.01 0.00 0.00 0.01 0.01 0.01 0.01 0.00 0.01 0.02 0.02 0.03 0.02 0.02 0.02 0.01 0.01 0.01
0.00 0.00 0.00 0.00 0.02 0.07 0.14 0.19 0.17 0.15 0.17 0.15 0.15 0.03 0.00 0.00 0.00 0.00 0.00 0.00 0.01 0.01 0.01 0.01 0.02 0.03 0.02 0.02 0.02 0.02 0.01 0.00
0.00 0.00 0.00 0.00 0.00 0.03 0.14 0.23 0.21 0.20 0.19 0.16 0.18 0.14 0.01 0.00 0.00 0.00 0.00 0.00 0.00 0.00 0.01 0.01 0.01 0.02 0.01 0.01 0.01 0.00 0.00 0.00
0.00 0.00 0.01 0.03 0.03 0.03 0.14 0.12 0.11 0.10 0.13 0.13 0.20 0.21 0.06 0.00 0.00 0.00 0.00 0.00 0.00 0.00 0.00 0.00 0.01 0.01 0.01 0.00 0.00 0.00 0.01 0.01
0.00 0.00 0.04 0.10 0.12 0.07 0.16 0.18 0.10 0.09 0.10 0.14 0.18 0.23 0.13 0.02 0.00 0.01 0.00 0.00 0.00 0.00 0.00 0.01 0.01 0.01 0.01 0.00 0.00 0.01 0.01 0.01
0.01 0.01 0.03 0.16 0.21 0.26 0.34 0.42 0.32 0.17 0.10 0.13 0.20 0.29 0.16 0.04 0.01 0.01 0.01 0.01 0.00 0.00 0.00 0.01 0.01 0.01 0.02 0.01 0.01 0.01 0.01 0.03
0.08 0.05 0.09 0.17 0.34 0.42 0.39 0.72 0.99 0.91 0.58 0.31 0.35 0.45 0.31 0.11 0.02 0.01 0.02 0.01 0.01 0.01 0.01 0.01 0.01 0.02 0.03 0.02 0.02 0.01 0.01 0.01
0.29 0.16 0.20 0.22 0.31 0.42 0.45 0.49 0.68 1.27 1.55 1.70 1.20 0.86 0.66 0.30 0.18 0.16 0.09 0.06 0.06 0.06 0.04 0.05 0.04 0.04 0.05 0.04 0.04 0.02 0.04 0.07